Year,Month,Day,Hour,Minute,Value (Times are PST for temperature in C)
2021,04,19,14,08,19.20
2021,04,19,14,09,19.30
2021,04,19,14,10,19.30
2021,04,19,14,11,19.30
2021,04,19,14,12,19.30
2021,04,19,14,13,19.30
2021,04,19,14,14,19.30
2021,04,19,14,15,19.30
2021,04,19,14,16,19.20
2021,04,19,14,17,19.20
2021,04,19,14,18,19.20
2021,04,19,14,19,19.20
2021,04,19,14,20,19.20
2021,04,19,14,21,19.20
2021,04,19,14,22,19.20
2021,04,19,14,23,19.20
2021,04,19,14,24,19.20
2021,04,19,14,25,19.20
2021,04,19,14,26,19.10
2021,04,19,14,27,19.20
2021,04,19,14,28,19.10
2021,04,19,14,29,19.10
2021,04,19,14,30,19.10
2021,04,19,14,31,19.10
2021,04,19,14,32,19.20
2021,04,19,14,33,19.30
2021,04,19,14,34,19.30
2021,04,19,14,35,19.40
2021,04,19,14,36,19.40
2021,04,19,14,37,19.40
2021,04,19,14,38,19.40
2021,04,19,14,39,19.50
2021,04,19,14,40,19.50
2021,04,19,14,41,19.50
2021,04,19,14,42,19.60
2021,04,19,14,43,19.60
2021,04,19,14,44,19.60
2021,04,19,14,45,19.50
2021,04,19,14,46,19.60
2021,04,19,14,47,19.60
2021,04,19,14,48,19.70
2021,04,19,14,49,19.80
2021,04,19,14,50,19.80
2021,04,19,14,51,19.80
2021,04,19,14,52,19.90
2021,04,19,14,53,19.90
2021,04,19,14,54,20.00
2021,04,19,14,55,20.00
2021,04,19,14,56,20.10
2021,04,19,14,57,20.20
2021,04,19,14,58,20.30
2021,04,19,14,59,20.40
2021,04,19,15,00,20.40
2021,04,19,15,01,20.50
2021,04,19,15,02,20.60
2021,04,19,15,03,20.70
2021,04,19,15,04,20.70
2021,04,19,15,05,20.60
2021,04,19,15,06,20.50
2021,04,19,15,07,20.50
2021,04,19,15,08,20.40
2021,04,19,15,09,20.40
2021,04,19,15,10,20.40
2021,04,19,15,11,20.40
2021,04,19,15,12,20.50
2021,04,19,15,13,20.50
2021,04,19,15,14,20.40
2021,04,19,15,15,20.30
2021,04,19,15,16,20.30
2021,04,19,15,17,20.40
2021,04,19,15,18,20.40
2021,04,19,15,19,20.50
2021,04,19,15,20,20.50
2021,04,19,15,21,20.50
2021,04,19,15,22,20.50
2021,04,19,15,23,20.50
2021,04,19,15,24,20.50
2021,04,19,15,25,20.40
2021,04,19,15,26,20.50
2021,04,19,15,27,20.50
2021,04,19,15,28,20.40
2021,04,19,15,29,20.40
2021,04,19,15,30,20.50
2021,04,19,15,31,20.50
2021,04,19,15,32,20.50
2021,04,19,15,33,20.60
2021,04,19,15,34,20.60
2021,04,19,15,35,20.60
2021,04,19,15,36,20.60
2021,04,19,15,37,20.60
2021,04,19,15,38,20.60
2021,04,19,15,39,20.60
2021,04,19,15,40,20.60
2021,04,19,15,41,20.60
2021,04,19,15,42,20.70
2021,04,19,15,43,20.70
2021,04,19,15,44,20.80
2021,04,19,15,45,20.80
2021,04,19,15,46,20.80
2021,04,19,15,47,20.90
2021,04,19,15,48,20.90
2021,04,19,15,49,20.90
2021,04,19,15,50,20.90
2021,04,19,15,51,20.90
2021,04,19,15,52,20.90
2021,04,19,15,53,20.90
2021,04,19,15,54,20.90
2021,04,19,15,55,21.00
2021,04,19,15,56,21.00
2021,04,19,15,57,21.10
2021,04,19,15,58,21.00
2021,04,19,15,59,21.00
2021,04,19,16,00,20.90
2021,04,19,16,01,20.90
2021,04,19,16,02,20.90
2021,04,19,16,03,20.90
2021,04,19,16,04,20.90
2021,04,19,16,05,20.90
2021,04,19,16,06,20.90
2021,04,19,16,07,20.80
2021,04,19,16,08,20.80
2021,04,19,16,09,20.70
2021,04,19,16,10,20.60
2021,04,19,16,11,20.50
2021,04,19,16,12,20.40
2021,04,19,16,13,20.40
2021,04,19,16,14,20.30
2021,04,19,16,15,20.30
2021,04,19,16,16,20.30
2021,04,19,16,17,20.30
2021,04,19,16,18,20.30
2021,04,19,16,19,20.30
2021,04,19,16,20,20.30
2021,04,19,16,21,20.30
2021,04,19,16,22,20.40
2021,04,19,16,23,20.60
2021,04,19,16,24,20.80
2021,04,19,16,25,20.90
2021,04,19,16,26,21.00
2021,04,19,16,27,21.00
2021,04,19,16,28,20.90
2021,04,19,16,29,20.80
2021,04,19,16,30,20.80
2021,04,19,16,31,20.80
2021,04,19,16,32,20.70
2021,04,19,16,33,20.60
2021,04,19,16,34,20.60
2021,04,19,16,35,20.50
2021,04,19,16,36,20.50
2021,04,19,16,37,20.60
2021,04,19,16,38,20.60
2021,04,19,16,39,20.60
2021,04,19,16,40,20.70
2021,04,19,16,41,20.80
2021,04,19,16,42,20.80
2021,04,19,16,43,20.90
2021,04,19,16,44,20.90
2021,04,19,16,45,21.00
2021,04,19,16,46,21.00
2021,04,19,16,47,21.10
2021,04,19,16,48,21.20
2021,04,19,16,49,21.20
2021,04,19,16,50,21.30
2021,04,19,16,51,21.30
2021,04,19,16,52,21.30
2021,04,19,16,53,21.30
2021,04,19,16,54,21.30
2021,04,19,16,55,21.30
2021,04,19,16,56,21.30
2021,04,19,16,57,21.30
2021,04,19,16,58,21.10
2021,04,19,16,59,21.00
2021,04,19,17,00,21.00
2021,04,19,17,01,21.10
2021,04,19,17,02,21.10
2021,04,19,17,03,21.20
2021,04,19,17,04,21.20
2021,04,19,17,05,21.20
2021,04,19,17,06,21.20
2021,04,19,17,07,21.20
2021,04,19,17,08,21.20
2021,04,19,17,09,21.10
2021,04,19,17,10,21.00
2021,04,19,17,11,20.90
2021,04,19,17,12,20.80
2021,04,19,17,13,20.80
2021,04,19,17,14,20.80
2021,04,19,17,15,20.90
2021,04,19,17,16,20.90
2021,04,19,17,17,21.00
2021,04,19,17,18,21.20
2021,04,19,17,19,21.30
2021,04,19,17,20,21.50
2021,04,19,17,21,21.50
2021,04,19,17,22,21.60
2021,04,19,17,23,21.70
2021,04,19,17,24,21.60
2021,04,19,17,25,21.60
2021,04,19,17,26,21.60
2021,04,19,17,27,21.70
2021,04,19,17,28,21.70
2021,04,19,17,29,21.80
2021,04,19,17,30,21.80
2021,04,19,17,31,21.90
2021,04,19,17,32,21.90
2021,04,19,17,33,22.00
2021,04,19,17,34,22.10
2021,04,19,17,35,22.10
2021,04,19,17,36,22.00
2021,04,19,17,37,21.80
2021,04,19,17,38,21.70
2021,04,19,17,39,21.60
2021,04,19,17,40,21.50
2021,04,19,17,41,21.40
2021,04,19,17,42,21.30
2021,04,19,17,43,21.20
2021,04,19,17,44,21.20
2021,04,19,17,45,21.20
2021,04,19,17,46,21.30
2021,04,19,17,47,21.30
2021,04,19,17,48,21.40
2021,04,19,17,49,21.50
2021,04,19,17,50,21.60
2021,04,19,17,51,21.70
2021,04,19,17,52,21.60
2021,04,19,17,53,21.60
2021,04,19,17,54,21.70
2021,04,19,17,55,21.70
2021,04,19,17,56,21.80
2021,04,19,17,57,21.80
2021,04,19,17,58,21.80
2021,04,19,17,59,21.80
2021,04,19,18,00,21.80
2021,04,19,18,01,21.70
2021,04,19,18,02,21.70
2021,04,19,18,03,21.70
2021,04,19,18,04,21.70
2021,04,19,18,05,21.60
2021,04,19,18,06,21.60
2021,04,19,18,07,21.50
2021,04,19,18,08,21.50
2021,04,19,18,09,21.40
